Simultaneous Nadir Overpasses (SNOs) Predictions

Prediction of SNOs between GOES-15 and METOP-A Satellite Orbit:

Table of predicted SNOs for the next 14.0 days since TLE Epoch: 6/7/2014
<
Index Date Time (GOES-15) GOES-15 Lat,Lon METOP-A Lat,Lon Distance(km) Time Diff (sec)
1 06/07/2014 06:26:32 0.09,-135.31 0.26,-134.68 72.25 80
2 06/08/2014 18:48:05 -0.08,-135.33 0.80,-139.24 445.28 80
3 06/09/2014 18:24:48 -0.09,-135.35 -0.34,-134.25 125.15 80
4 06/11/2014 06:46:30 0.08,-135.38 -0.72,-138.85 395.76 80
5 06/12/2014 06:23:13 0.09,-135.39 0.41,-133.86 174.00 80
6 06/13/2014 18:44:47 -0.08,-135.40 0.57,-138.43 345.17 80
7 06/14/2014 18:21:28 -0.09,-135.41 -0.51,-133.43 224.14 80
8 06/16/2014 06:43:12 0.09,-135.42 -0.50,-138.04 298.25 80
9 06/17/2014 06:19:54
